Content
SEND FEEDBACK

Daily
Averages
Monthly
Summary
United States of America

ROME, GEORGIA


Home > North America > United States > Georgia
Elevation: 644 feet     Latitude: 34 20N     Longitude: 085 09W

WEATHER
 
SELECT A DAY
Number of Records: 214,198;   Date Range: 1/1/95 - 10/23/14
 
SHARE

PRINT THIS DATA

[ ← Previous Day ]
WEATHER ALMANAC - AUGUST 25, 2014
[ Next Day → ]
[ °C ]   °F
Weather ElementAverageHighLow
Temperature77.4 °F84.9 °F (1:33 pm)71.1 °F (2:53 am)
Dewpoint66.6 °F70 °F (8:53 am)64 °F (10:53 am)
Humidity70 %84 % (12:53 am)55 % (2:53 pm)
Barometer30.03 in30.10 in (5:18 am)29.97 in (1:53 am)
Wind Speed4.5 mph10.4 mph (5:53 pm)
Weather ElementAverage
Visibility10 mi
Wind DirectionENE (65.8 °)

Weather ElementTotal
Precipitation---
Cooling Degree Days13 (Base 65)
Growing Degree Days28 (Base 50)
Averaged from 24 records on August 25, 2014
WEATHER CONDITIONS BREAKOUT
WIND DIRECTION BREAKOUT
WEATHER BY HOUR - AUGUST 25, 2014
[ °C ]   °F
Local TimeTemperatureDewpointHumidityBarometerVisibilityWind DirectionWind SpeedGust SpeedPrecipitationEventsConditions
12:53 AM75.9 °F68.0 °F76 %30.01 in10.0 miEast (100°)3.5 mphMostly Cloudy
1:53 AM75.0 °F68.0 °F79 %30.02 in10.0 miENE (70°)3.5 mphScattered Clouds
2:53 AM73.9 °F68.0 °F82 %30.02 in10.0 miEast (100°)4.6 mphMostly Cloudy
3:53 AM73.9 °F66.9 °F79 %30.02 in10.0 miEast (90°)4.6 mphOvercast
4:53 AM73.4 °F66.2 °F78 %30.06 in10.0 miEast (100°)4.6 mphOvercast
5:53 AM73.0 °F66.0 °F79 %30.04 in10.0 miEast (80°)5.8 mphOvercast
6:53 AM72.0 °F64.9 °F78 %30.05 in10.0 miEast (100°)6.9 mphPartly Cloudy
7:53 AM71.1 °F64.9 °F81 %30.06 in10.0 miESE (110°)3.5 mphClear
8:53 AM73.0 °F66.0 °F79 %30.07 in10.0 miVariable3.5 mphScattered Clouds
9:53 AM75.2 °F64.4 °F69 %30.10 in10.0 miESE (110°)10.4 mphMostly Cloudy
10:53 AM78.1 °F64.0 °F62 %30.07 in10.0 miEast (100°)9.2 mphPartly Cloudy
11:53 AM80.1 °F64.0 °F58 %30.07 in10.0 miENE (70°)6.9 mphPartly Cloudy
12:53 PM82.0 °F64.9 °F56 %30.06 in10.0 miCalmPartly Cloudy
1:53 PM81.0 °F66.0 °F60 %30.04 in10.0 miESE (110°)3.5 mphOvercast
2:53 PM82.0 °F66.0 °F58 %30.03 in10.0 miENE (60°)5.8 mphMostly Cloudy
3:53 PM82.9 °F66.0 °F56 %30.01 in10.0 miVariable4.6 mphOvercast
4:53 PM84.9 °F66.9 °F55 %29.99 in10.0 miESE (110°)5.8 mphScattered Clouds
5:53 PM84.9 °F68.0 °F57 %29.98 in10.0 miNE (50°)5.8 mphPartly Cloudy
6:53 PM84.0 °F66.9 °F56 %29.98 in10.0 miNE (50°)6.9 mphClear
7:53 PM82.0 °F68.0 °F62 %29.97 in10.0 miNE (40°)4.6 mphClear
8:53 PM77.0 °F70.0 °F79 %29.99 in10.0 miSE (130°)4.6 mphMostly Cloudy
9:53 PM77.0 °F68.0 °F74 %30.05 in10.0 miCalmMostly Cloudy
10:53 PM73.4 °F68.0 °F83 %30.07 in10.0 miCalmMostly Cloudy
11:53 PM73.0 °F68.0 °F84 %30.06 in10.0 miCalmOvercast
Hourly data recorded from KRMG, located miles away from Rome, Georgia







STORIES FROM OUR PARTNERS